This is the latest recevied weather packets stored in our database for station/object W7TTE. If no packets are shown the sender has not sent any weather packets the latest 10 day(s).
| Time | Temp. | Humidity | Pressure | Rain* | Wind** | Luminosity | Snow |
|---|---|---|---|---|---|---|---|
| 1777750595 | 34.44° C | 17% | 1014.5 hPa | 0 mm | - | 788 W/m² | - |
| 1777750292 | 33.89° C | 19% | 1014.5 hPa | 0 mm | - | 787 W/m² | - |
| 1777749987 | 33.89° C | 19% | 1014.6 hPa | 0 mm | - | 786 W/m² | - |
| 1777749685 | 34.44° C | 19% | 1014.6 hPa | 0 mm | - | 786 W/m² | - |
| 1777749381 | 34.44° C | 19% | 1014.7 hPa | 0 mm | - | 785 W/m² | - |
| 1777749079 | 34.44° C | 19% | 1014.7 hPa | 0 mm | - | 784 W/m² | - |
| 1777748777 | 34.44° C | 20% | 1014.7 hPa | 0 mm | - | 785 W/m² | - |
| 1777748474 | 33.89° C | 20% | 1014.9 hPa | 0 mm | - | 782 W/m² | - |
| 1777748168 | 33.89° C | 20% | 1015 hPa | 0 mm | - | 779 W/m² | - |
| 1777747865 | 34.44° C | 20% | 1014.9 hPa | 0 mm | - | 780 W/m² | - |
| 1777747561 | 33.33° C | 21% | 1015 hPa | 0 mm | - | 776 W/m² | - |
| 1777747252 | 32.78° C | 21% | 1015.1 hPa | 0 mm | - | 772 W/m² | - |
| 1777746948 | 33.33° C | 21% | 1015.2 hPa | 0 mm | - | 768 W/m² | - |
| 1777746644 | 33.33° C | 22% | 1015.4 hPa | 0 mm | - | 761 W/m² | - |
| 1777746339 | 32.78° C | 22% | 1015.4 hPa | 0 mm | - | 757 W/m² | - |
| 1777746036 | 33.89° C | 22% | 1015.4 hPa | 0 mm | - | 750 W/m² | - |
| 1777745733 | 32.78° C | 22% | 1015.6 hPa | 0 mm | - | 746 W/m² | - |
| 1777745432 | 32.78° C | 23% | 1015.4 hPa | 0 mm | - | 738 W/m² | - |
| 1777745129 | 33.33° C | 22% | 1015.5 hPa | 0 mm | - | 733 W/m² | - |
| 1777744825 | 33.33° C | 23% | 1015.8 hPa | 0 mm | - | 723 W/m² | - |
| 1777744519 | 32.22° C | 23% | 1015.7 hPa | 0 mm | - | 718 W/m² | - |
| 1777744215 | 32.22° C | 24% | 1015.7 hPa | 0 mm | - | 708 W/m² | - |
| 1777743913 | 32.22° C | 24% | 1015.9 hPa | 0 mm | - | 698 W/m² | - |
| 1777743609 | 32.22° C | 23% | 1015.9 hPa | 0 mm | - | 693 W/m² | - |
| 1777743307 | 31.67° C | 24% | 1015.8 hPa | 0 mm | - | 683 W/m² | - |
* Rain latest hour (hover to see other rain measurements)
** Current wind speed in m/s (hover to see current wind gust speed)